Location: Unspecified
(0.0000°N, 0.0000°E)
Time: 11:53:36
(UTC+00:00)

Amsat-Oscar-6 - Pass Details

Date: 02 May 2019
Orbit: 1448 x 1455 km, 101.8° (Epoch: 20 May)

Event Time Altitude Azimuth Distance (km) Brightness Sun altitude
Rises 05:00:46 0° 335° (NNW) 4,534 ? -13.6°
Reaches altitude 10° 05:06:20 10° 304° (NW) 3,562 ? -12.2°
Maximum altitude 05:08:37 11° 288° (WNW) 3,458 ? -11.7°
Enters shadow 05:10:22 11° 275° (W) 3,521 ? -11.3°
